This demonstration page uses our WeatherBlox Daily Observations layout. Learn more.

41.86663, -103.66717

Hourly Observations for October 30, 2020

Temp ( °F °C ) Dew Point ( °F °C ) Humidity (%) Winds ( mph kmh ) Pressure ( in mb ) Visibility ( mi km ) Precip ( " mm )
12:53 am 00:53 Clear 36 2.2 32 0 86 86 NNW 9 15 30.16 1021 10 16.0934 0 0
1:53 am 01:53 Clear 34 1.1 31 -0.6 89 89 N 3 6 30.18 1022 10 16.0934 0 0
2:53 am 02:53 Clear 34 1.1 30 -1.1 85 85 N 6 9 30.17 1022 10 16.0934 0 0
3:53 am 03:53 Clear 32 0 30 -1.1 92 92 N 7 11 30.17 1022 10 16.0934 0 0
4:53 am 04:53 Clear 32 0 29 -1.7 88 88 W 6 9 30.18 1022 10 16.0934 0 0
5:53 am 05:53 Clear 32 0 29 -1.7 88 88 Calm 30.2 1023 10 16.0934 0 0
6:53 am 06:53 Clear 29 -1.7 28 -2.2 96 96 W 5 7 30.22 1023 10 16.0934 0 0
7:53 am 07:53 Sunny 31 -0.6 28 -2.2 89 89 NW 5 7 30.21 1023 10 16.0934 0 0
8:53 am 08:53 Sunny 37 2.8 32 0 82 82 Calm 30.22 1023 10 16.0934 0 0
9:53 am 09:53 Sunny 44 6.7 34 1.1 68 68 Calm 30.19 1022 10 16.0934 0 0
10:53 am 10:53 Sunny 47 8.3 37 2.8 69 69 E 3 6 30.16 1021 10 16.0934 0 0
11:53 am 11:53 Sunny 53 11.7 36 2.2 52 52 SE 3 6 30.12 1020 10 16.0934 0 0
12:53 pm 12:53 Sunny 60 15.6 38 3.3 44 44 SE 6 9 30.05 1018 10 16.0934 0 0
1:53 pm 13:53 Sunny 65 18.3 38 3.3 37 37 SSW 9 15 29.99 1016 10 16.0934 0 0
2:53 pm 14:53 Sunny 68 20 38 3.3 33 33 SSW 16 26 29.95 1014 10 16.0934 0 0
3:53 pm 15:53 Sunny 68 20 36 2.2 31 31 SSW 15 24 29.92 1013 10 16.0934 0 0
4:53 pm 16:53 Sunny 65 18.3 37 2.8 36 36 SSW 10 17 29.91 1013 10 16.0934 0 0
5:53 pm 17:53 Clear 57 13.9 38 3.3 49 49 S 8 13 29.91 1013 10 16.0934 0 0
6:53 pm 18:53 Clear 54 12.2 37 2.8 53 53 SSW 6 9 29.91 1013 10 16.0934 0 0
7:53 pm 19:53 Clear 51 10.6 36 2.2 56 56 SSW 8 13 29.9 1012 10 16.0934 0 0
8:53 pm 20:53 Clear 53 11.7 36 2.2 52 52 SSW 13 20 29.85 1011 10 16.0934 0 0
9:53 pm 21:53 Clear 46 7.8 34 1.1 63 63 NNE 5 7 29.85 1011 10 16.0934 0 0
10:53 pm 22:53 Clear 58 14.4 30 -1.1 35 35 WSW 15 24 29.78 1009 10 16.0934 0 0
11:53 pm 23:53 Clear 57 13.9 29 -1.7 34 34 WSW 10 17 29.77 1008 10 16.0934 0 0

Powered by AerisWeather